{"data":{"norad_id":62669,"epoch":"2026-05-25T04:14:25.131264Z","epoch_age_seconds":59712,"freshness":"FRESH","line1":"1 62669U 25009BN  26145.17667976  .00003285  00000+0  14623-3 0  9998","line2":"2 62669  97.4032 224.8925 0006700  71.9096 288.2869 15.22147019132879","mean_motion":15.22147019,"eccentricity":0.00067,"inclination_deg":97.4032,"raan_deg":224.8925,"arg_perigee_deg":71.9096,"mean_anomaly_deg":288.2869,"bstar":0.00014623,"rev_number":13287,"period_min":94.603213883113,"perigee_km":494.75783817631,"apogee_km":503.97369188145,"semimajor_km":6877.5027650289,"source":"CELESTRAK","updated_at":"2026-05-25T13:38:03.164169Z"}}